Regional Weather Roundup
Issued by NWS

Home | Current Version | Previous Version | Text Only | Print | Product List | Glossary On
Versions: 1 2 3 4 5 6 7 8 9 10 11 12 13 14 15 16 17 18 19 20 21 22 23 24 25 26 27 28
000
ASUS44 KBMX 300110
RWRAL

ALABAMA REGIONAL WEATHER ROUNDUP
NATIONAL WEATHER SERVICE BIRMINGHAM AL
800 PM CDT MON AUG 29 2016

NOTE: "FAIR" INDICATES FEW OR NO CLOUDS BELOW 12,000 FEET
WITH NO SIGNIFICANT WEATHER AND/OR OBSTRUCTIONS TO VISIBILITY.

THE REMARK "TC" DENOTES TEMPERATURE IN DEGREES CELSIUS.

ALZ001>011-014-016>018-020-300200-
NORTH ALABAMA

CITY           SKY/WX    TMP DP  RH WIND       PRES   REMARKS
MUSCLE SHOALS  CLEAR     84  70  62 NE5       30.06R
HUNTSVILLE     CLEAR     86  68  54 NE7       30.05R
DECATUR        CLEAR     79  72  79 N6        30.05R
HALEYVILLE     NOT AVBL
GADSDEN        CLEAR     82  69  64 N6        30.05R
$$

ALZ012-013-022-023-030>036-040>044-300200-
WEST CENTRAL ALABAMA

CITY           SKY/WX    TMP DP  RH WIND       PRES   REMARKS
TUSCALOOSA     MOCLDY    85  74  69 N3        30.00R HX  92
$$

ALZ015-024>027-033>036-040>044-300200-
CENTRAL ALABAMA

CITY           SKY/WX    TMP DP  RH WIND       PRES   REMARKS
BIRMINGHAM     PTCLDY    87  67  51 E3        30.05R HX  90
MONTGOMERY     CLOUDY    79  69  71 E5        30.01R
SHELBY CO ARPT CLEAR     86  66  51 CALM      30.02R
MAXWELL AFB    PTCLDY    79  74  82 E5        30.00R
GREENVILLE     MOCLDY    81  71  71 SE3       30.01R
$$

ALZ019-021-028-029-037-038-045>048-300200-
EAST CENTRAL ALABAMA

CITY           SKY/WX    TMP DP  RH WIND       PRES   REMARKS
ANNISTON       CLEAR     86  66  51 CALM      30.04R
ALEXANDER CITY CLEAR     81  78  90 CALM      30.04R
AUBURN         PTCLDY    79  70  74 NE6       30.05R
$$

ALZ051>064-300200-
SOUTHWEST ALABAMA

CITY           SKY/WX    TMP DP  RH WIND       PRES   REMARKS
MOBILE         PTCLDY    83  71  67 NE3       29.96R
BROOKLEY FIELD CLOUDY    87  73  62 NE9       29.95S HX  94
EVERGREEN      CLEAR     79  75  87 CALM      29.98R
$$

ALZ049-050-065>069-300200-
SOUTHEAST ALABAMA

CITY           SKY/WX    TMP DP  RH WIND       PRES   REMARKS
DOTHAN         MOCLDY    80  74  81 NE6       30.02R
OZARK          PTCLDY    82  72  70 NE7       29.98S
TROY           MOCLDY    76  73  91 N7        30.01R
EUFAULA        FAIR      78  71  79 N3        30.01R
$$




USA.gov is the U.S. government's official web portal to all federal, state and local government web resources and services.